Back to catalog

STARLINK-36704

AliveCommunicationsSSO
NORAD 67697·PAYLOAD·🇺🇸 United States

Launched Feb 7, 2026 from Vandenberg Space Force Base

Loading…

Next Passes (next 24 hours)

TLE

FreshSource: CelesTrak SupGP

Epoch: Sep 14, 2026, 21:06 UTC

1 67697C 26025E   26257.87965278 -.00021498  00000+0 -66715-3 0  2574
2 67697  97.2851   7.8729 0001000  94.3337 328.2219 15.33460627    17

Track STARLINK-36704 in real time with AllMySat

Download on the App Store